Zurück zum Katalog

STARLING 2

AktivWissenschaftPO
NORAD 57387·PAYLOAD·🇺🇸 United States

Gestartet Jul 18, 2023 von Rocket Lab Launch Complex 1

Loading…

Nächste Überflüge (nächste 24 Stunden)

TLE

AktuellSource: Space-Track

Epoche: Sep 14, 2026, 15:01 UTC

1 57387U 23100B   26257.62633330  .00000926  00000-0  67874-4 0  9997
2 57387  99.5053 296.2500 0005258 183.5499 176.5686 15.07033103173379

Verfolge STARLING 2 in Echtzeit mit AllMySat

Download on the App Store